Date String (YYYY-MM-DD hh:mm:ss) UTC,Instrument flags,absolute air pressure of the measurement (hPa),sample flow rate (lpm),inlet stack bypass flow (lpm),air temperature of the measurement (°C),ambient temperature measured by the external sensor (°C),aerosol sample conditioner tube jacket temperature (°C),OPC LED temperature (°C),internal box temperature (°C),relative humidity of the measurement (%),span deviation,mass concentration of particles derived from Lorenz-Mie calculation of OPC scattering (μg/m³),mass concentration of particles derived from Lorenz-Mie calculation of OPC scattering (μg/m³),mass concentration of particles derived from Lorenz-Mie calculation of OPC scattering (μg/m³)
DateTimeUTC,F1_M11,P_M11,Q1_M11,Q2_M11,T1_M11,T2_M11,T3_M11,T4_M11,T5_M11,U1_M11,ZSPAN_M11,X0_M11,X2_M11,X1_M11
2024-04-17 21:00:00,SystemResetWarning,0822.6,4.99,000.00,025.3,024.7,000.0,033.5,027.2,013.7,0000.0,0007.06,0002.51,0001.63
2024-04-17 21:01:00,SystemResetWarning,0822.5,5.00,000.00,025.4,024.8,000.0,033.5,027.3,013.8,0000.0,0007.01,0002.45,0001.61
2024-04-17 21:02:00,SystemResetWarning,0822.5,5.01,000.00,025.4,024.9,000.0,033.6,027.4,013.5,0000.0,0007.58,0002.38,0001.59
2024-04-17 21:03:00,SystemResetWarning,0822.5,5.00,000.00,025.5,025.0,000.0,033.6,027.4,013.6,0000.0,0007.65,0002.40,0001.59
2024-04-17 21:04:00,SystemResetWarning,0822.4,4.98,000.00,025.4,023.8,000.0,033.7,026.7,013.9,0000.0,0007.64,0002.42,0001.59
2024-04-17 21:05:00,SystemResetWarning,0822.4,5.02,000.00,025.0,021.9,000.0,033.7,025.6,014.1,0000.0,0007.70,0002.44,0001.59
2024-04-17 21:06:00,SystemResetWarning,0822.4,5.01,000.00,024.7,021.9,000.0,033.6,025.5,013.9,0000.0,0007.94,0002.50,0001.58
2024-04-17 21:07:00,SystemResetWarning,0822.4,4.99,000.00,024.7,022.3,000.0,033.5,025.7,013.5,0000.0,0007.98,0002.48,0001.56
2024-04-17 21:08:00,SystemResetWarning,0822.4,5.00,000.00,024.7,022.7,000.0,033.4,026.1,013.6,0000.0,0007.67,0002.46,0001.55
2024-04-17 21:09:00,SystemResetWarning,0822.4,4.99,000.00,024.7,023.1,000.0,033.3,026.4,013.8,0000.0,0006.67,0002.40,0001.54
2024-04-17 21:10:00,SystemResetWarning,0822.4,4.99,000.00,024.8,023.4,000.0,033.3,026.5,013.8,0000.0,0006.66,0002.38,0001.52
2024-04-17 21:11:00,SystemResetWarning,0822.4,5.00,000.00,024.9,023.7,000.0,033.3,026.7,013.9,0000.0,0007.40,0002.36,0001.51
2024-04-17 21:12:00,SystemResetWarning,0822.4,5.01,000.00,024.9,024.0,000.0,033.3,026.8,014.0,0000.0,0007.33,0002.37,0001.52
2024-04-17 21:13:00,SystemResetWarning,0822.4,5.01,000.00,025.0,024.2,000.0,033.3,026.9,014.1,0000.0,0006.27,0002.41,0001.52
2024-04-17 21:14:00,SystemResetWarning,0822.4,5.00,000.00,025.1,024.4,000.0,033.3,027.0,013.9,0000.0,0006.20,0002.44,0001.53
2024-04-17 21:15:00,SystemResetWarning,0822.3,5.01,000.00,025.2,024.6,000.0,033.3,027.1,013.7,0000.0,0006.21,0002.42,0001.51
2024-04-17 21:16:00,SystemResetWarning,0822.3,4.99,000.00,025.3,024.7,000.0,033.4,027.2,013.4,0000.0,0006.39,0002.43,0001.50
2024-04-17 21:17:00,SystemResetWarning,0822.3,4.99,000.00,025.4,024.9,000.0,033.4,027.3,013.4,0000.0,0006.12,0002.38,0001.48
2024-04-17 21:18:00,SystemResetWarning,0822.3,5.00,000.00,025.4,025.0,000.0,033.5,027.4,013.1,0000.0,0005.82,0002.36,0001.47
2024-04-17 21:19:00,SystemResetWarning,0822.4,5.00,000.00,025.3,023.6,000.0,033.6,026.6,013.5,0000.0,0005.75,0002.39,0001.48
2024-04-17 21:20:00,SystemResetWarning,0822.3,5.01,000.00,024.9,021.9,000.0,033.6,025.6,013.4,0000.0,0005.73,0002.39,0001.49
2024-04-17 21:21:00,SystemResetWarning,0822.2,5.02,000.00,024.7,021.9,000.0,033.5,025.5,013.8,0000.0,0005.57,0002.42,0001.50
2024-04-17 21:22:00,SystemResetWarning,0822.3,5.00,000.00,024.6,022.4,000.0,033.4,025.7,013.6,0000.0,0004.56,0002.42,0001.50
2024-04-17 21:23:00,SystemResetWarning,0822.2,5.00,000.00,024.6,022.7,000.0,033.3,026.1,013.5,0000.0,0004.62,0002.40,0001.48
2024-04-17 21:24:00,SystemResetWarning,0822.3,5.01,000.00,024.7,023.1,000.0,033.2,026.4,013.5,0000.0,0004.49,0002.35,0001.47
2024-04-17 21:25:00,SystemResetWarning,0822.2,5.00,000.00,024.8,023.4,000.0,033.2,026.5,013.3,0000.0,0004.35,0002.31,0001.45
2024-04-17 21:26:00,SystemResetWarning,0822.2,5.00,000.00,024.9,023.7,000.0,033.2,026.7,013.4,0000.0,0004.64,0002.34,0001.46
2024-04-17 21:27:00,SystemResetWarning,0822.2,4.99,000.00,025.0,024.0,000.0,033.2,026.8,013.2,0000.0,0004.36,0002.29,0001.45
2024-04-17 21:28:00,SystemResetWarning,0822.2,5.01,000.00,025.0,024.2,000.0,033.2,026.9,013.4,0000.0,0004.36,0002.30,0001.45
2024-04-17 21:29:00,SystemResetWarning,0822.3,5.00,000.00,025.1,024.4,000.0,033.3,027.1,013.2,0000.0,0004.37,0002.31,0001.44
2024-04-17 21:30:00,SystemResetWarning,0822.2,5.00,000.00,025.2,024.6,000.0,033.3,027.2,013.5,0000.0,0004.33,0002.25,0001.41
2024-04-17 21:31:00,SystemResetWarning,0822.1,5.00,000.00,025.3,024.7,000.0,033.3,027.2,013.8,0000.0,0004.69,0002.27,0001.40
2024-04-17 21:32:00,SystemResetWarning,0822.0,4.99,000.00,025.4,024.8,000.0,033.4,027.3,013.7,0000.0,0005.37,0002.38,0001.39
2024-04-17 21:33:00,SystemResetWarning,0822.1,4.99,000.00,025.4,024.9,000.0,033.4,027.3,013.5,0000.0,0007.59,0002.47,0001.38
2024-04-17 21:34:00,SystemResetWarning,0822.1,4.99,000.00,025.3,023.4,000.0,033.5,026.5,013.4,0000.0,0008.14,0002.58,0001.39
2024-04-17 21:35:00,SystemResetWarning,0822.0,5.01,000.00,024.9,021.7,000.0,033.5,025.5,013.6,0000.0,0008.38,0002.66,0001.40
2024-04-17 21:36:00,SystemResetWarning,0822.0,5.01,000.00,024.6,021.9,000.0,033.5,025.5,014.1,0000.0,0009.98,0002.74,0001.40
2024-04-17 21:37:00,SystemResetWarning,0822.0,5.00,000.00,024.6,022.3,000.0,033.3,025.6,014.0,0000.0,0010.84,0002.72,0001.39
2024-04-17 21:38:00,SystemResetWarning,0822.0,5.00,000.00,024.6,022.7,000.0,033.2,026.0,013.3,0000.0,0011.35,0002.75,0001.40
2024-04-17 21:39:00,SystemResetWarning,0822.0,5.00,000.00,024.7,023.0,000.0,033.2,026.3,013.3,0000.0,0011.29,0002.71,0001.40
2024-04-17 21:40:00,SystemResetWarning,0822.0,5.00,000.00,024.7,023.4,000.0,033.2,026.4,013.4,0000.0,0011.31,0002.71,0001.42
2024-04-17 21:41:00,SystemResetWarning,0822.0,5.00,000.00,024.8,023.7,000.0,033.2,026.6,013.0,0000.0,0011.78,0002.80,0001.44
2024-04-17 21:42:00,SystemResetWarning,0822.1,5.00,000.00,024.9,023.9,000.0,033.2,026.7,013.5,0000.0,0011.87,0002.85,0001.43
2024-04-17 21:43:00,SystemResetWarning,0822.0,5.00,000.00,025.0,024.2,000.0,033.2,026.9,013.1,0000.0,0012.30,0002.75,0001.43
2024-04-17 21:44:00,SystemResetWarning,0822.0,5.00,000.00,025.0,024.4,000.0,033.2,027.0,013.1,0000.0,0011.52,0002.62,0001.43
2024-04-17 21:45:00,SystemResetWarning,0822.0,5.00,000.00,025.1,024.6,000.0,033.2,027.1,012.9,0000.0,0011.48,0002.57,0001.42
2024-04-17 21:46:00,SystemResetWarning,0822.0,4.99,000.00,025.2,024.7,000.0,033.3,027.2,012.5,0000.0,0011.43,0002.50,0001.42
2024-04-17 21:47:00,SystemResetWarning,0822.0,5.00,000.00,025.3,024.8,000.0,033.3,027.3,012.4,0000.0,0010.00,0002.37,0001.43
2024-04-17 21:48:00,SystemResetWarning,0822.0,5.00,000.00,025.4,024.8,000.0,033.4,027.3,012.7,0000.0,0008.89,0002.35,0001.43
2024-04-17 21:49:00,SystemResetWarning,0822.0,5.00,000.00,025.2,023.3,000.0,033.5,026.3,012.8,0000.0,0008.52,0002.33,0001.43
2024-04-17 21:50:00,SystemResetWarning,0821.9,5.00,000.00,024.8,021.7,000.0,033.5,025.3,013.1,0000.0,0008.88,0002.35,0001.43
2024-04-17 21:51:00,SystemResetWarning,0821.8,5.02,000.00,024.5,021.9,000.0,033.4,025.4,013.0,0000.0,0008.93,0002.30,0001.42
2024-04-17 21:52:00,SystemResetWarning,0821.9,4.99,000.00,024.5,022.3,000.0,033.3,025.7,013.0,0000.0,0008.63,0002.26,0001.41
2024-04-17 21:53:00,SystemResetWarning,0822.0,4.99,000.00,024.6,022.7,000.0,033.2,026.1,012.9,0000.0,0008.45,0002.21,0001.41
2024-04-17 21:54:00,SystemResetWarning,0822.0,5.00,000.00,024.6,023.1,000.0,033.1,026.3,013.0,0000.0,0007.81,0002.13,0001.39
2024-04-17 21:55:00,SystemResetWarning,0822.0,5.01,000.00,024.7,023.4,000.0,033.1,026.5,013.2,0000.0,0006.91,0002.14,0001.40
2024-04-17 21:56:00,SystemResetWarning,0822.0,5.00,000.00,024.8,023.7,000.0,033.1,026.6,013.3,0000.0,0006.15,0002.10,0001.40
2024-04-17 21:57:00,SystemResetWarning,0822.0,5.00,000.00,024.9,023.9,000.0,033.1,026.7,013.1,0000.0,0006.61,0002.10,0001.39
2024-04-17 21:58:00,SystemResetWarning,0821.9,5.00,000.00,024.9,024.2,000.0,033.1,026.9,012.7,0000.0,0006.29,0002.10,0001.38
2024-04-17 21:59:00,SystemResetWarning,0822.0,4.99,000.00,025.0,024.4,000.0,033.2,027.0,012.6,0000.0,0006.19,0002.08,0001.36
